STARLINK-36825, 68041

Orbit data source: Space-Track

STARLINK-36825, 68041 is a payload satellite owned by SpaceX/Seattle (US) in LEO that was launched on Mon, 02 Mar 2026 UTC via an FALCON 9 launch vehicle from the Air Force Eastern Test Range (AFETR). Payload-class satellites include a variety of spacecraft equipped with specific instruments for various scientific and technological missions. These include communications satellites like Starlink; space stations such as the ISS; scientific satellites like the Hubble; Earth observation satellites from companies like Planet Labs, Umbra, and HawkEye 360; GPS; miniature CubeSats for education and research; and military/defense satellites.

Loading next visibility...
Identifier
68041, 2026-041B
Orbit
LEO
Country
Flag of USUS
Related business
Manufacturer
SpaceX/Seattle
Mission
Operational Commercial Communications
Bus & Motor
STARLINK V2MO, Unknown motor
Mass
575 kg wet, ~530 kg dry
Launch date (UTC)
2026-03-02 (2 months ago)
Launch vehicle
FALCON 9
Launch site
Air Force Eastern Test Range (AFETR)
Object type
Payload
Rocket body
Debris
Shape & HBR
Box + 2 Pan, 17.7 m
Radar Cross Section
36.964 m²

Expand to show TLE details & history
Last TLE update: 14 hours ago

TLE from 14 hours ago
0 STARLINK-36825
1 68041U 26041B   26118.87201003  .00024265  00000-0  63061-3 0  9999
2 68041  53.1600 175.9036 0001674  84.9280 275.1915 15.38835324  9085
Epoch: 2026-04-28T20:55Z
TLE epoch observation values (Epoch: 2026-04-28T20:55:41.666Z)
Latitude
-0.00007°
Longitude
5.13884°
Altitude
450.352 km
Speed
7.643 km/s
True Right ascension
11h 43m 36s
True Declination
0° 00' 00"
Sunlit
Object was in full shadow at epoch
Visualization orbit readout
Latitude
Unknown
Longitude
Unknown
Altitude
Unknown
Speed
Unknown
Apparent Right ascension
Unknown
Apparent Declination
Unknown
Sunlit
N/A
Visualization observer readout
Local Sidereal Time
18:18:26
Azimuth
Unknown
Elevation
Unknown
Doppler factor
Unknown
Orbital elements
Apogee altitude
450.953 km
Perigee altitude
448.667 km
Semi-major axis
6,827.947 km
Eccentricity
0.00017
Inclination
53.16°
RAAN
175.9036°
Arg. of periapsis
84.928°
True anomaly
275.1724°
Mean anomaly
275.1915°
Eccentric anomaly
275.18195°
Mean motion
3.84687 °/min
Orbital period
93.58 mins
BSTAR
0.00063061
Loading maneuver chart data...
Computing Atmospheric mass density...
Loading historical data...
Loading historical data...
Loading historical data...
Loading historical data...
Loading historical data...
Loading historical data...
Loading historical data...

Documentation

Showing up to 5 results
|